TimeCDT,TemperatureF,Dew PointF,Humidity,Sea Level PressureIn,VisibilityMPH,Wind Direction,Wind SpeedMPH,Gust SpeedMPH,PrecipitationIn,Events,Conditions,WindDirDegrees,DateUTC
12:53 AM,68.0,64.9,90,30.05,7.0,Calm,Calm,-,N/A,,Clear,0,2013-08-28 05:53:00
1:53 AM,66.0,64.0,93,30.04,7.0,Calm,Calm,-,N/A,,Clear,0,2013-08-28 06:53:00
2:53 AM,66.0,63.0,90,30.04,6.0,Calm,Calm,-,N/A,,Clear,0,2013-08-28 07:53:00
3:53 AM,66.0,63.0,90,30.03,7.0,Calm,Calm,-,N/A,,Clear,0,2013-08-28 08:53:00
4:53 AM,64.9,62.1,90,30.03,5.0,Calm,Calm,-,N/A,,Clear,0,2013-08-28 09:53:00
5:53 AM,64.0,62.1,93,30.05,6.0,Calm,Calm,-,N/A,,Clear,0,2013-08-28 10:53:00
6:53 AM,64.9,62.1,90,30.07,8.0,Calm,Calm,-,N/A,,Clear,0,2013-08-28 11:53:00
7:53 AM,71.1,66.0,84,30.08,9.0,Calm,Calm,-,N/A,,Clear,0,2013-08-28 12:53:00
8:53 AM,78.1,68.0,71,30.09,10.0,Calm,Calm,-,N/A,,Clear,0,2013-08-28 13:53:00
9:53 AM,84.0,64.9,53,30.09,10.0,North,3.5,-,N/A,,Clear,350,2013-08-28 14:53:00
10:53 AM,86.0,63.0,46,30.09,10.0,Calm,Calm,-,N/A,,Clear,0,2013-08-28 15:53:00
11:53 AM,87.1,63.0,44,30.08,10.0,SW,3.5,-,N/A,,Clear,230,2013-08-28 16:53:00
12:53 PM,87.1,64.9,48,30.08,10.0,Calm,Calm,-,N/A,,Scattered Clouds,0,2013-08-28 17:53:00
1:53 PM,88.0,64.0,45,30.06,10.0,WNW,5.8,-,N/A,,Clear,300,2013-08-28 18:53:00
2:53 PM,88.0,63.0,43,30.04,10.0,Calm,Calm,-,N/A,,Partly Cloudy,0,2013-08-28 19:53:00
3:53 PM,90.0,64.0,42,30.03,10.0,North,4.6,-,N/A,,Partly Cloudy,350,2013-08-28 20:53:00
4:53 PM,89.1,64.0,43,30.02,10.0,WNW,5.8,-,N/A,,Clear,300,2013-08-28 21:53:00
5:53 PM,87.1,64.0,46,30.02,10.0,WNW,4.6,-,N/A,,Clear,290,2013-08-28 22:53:00
6:53 PM,82.0,69.1,65,30.02,10.0,NW,3.5,-,N/A,,Clear,320,2013-08-28 23:53:00
7:44 PM,75.2,69.8,83,30.03,9.0,Calm,Calm,-,N/A,,Partly Cloudy,0,2013-08-29 00:44:00
7:53 PM,75.9,70.0,82,30.02,9.0,Calm,Calm,-,N/A,,Partly Cloudy,0,2013-08-29 00:53:00
8:53 PM,71.1,68.0,90,30.03,5.0,South,3.5,-,N/A,,Clear,190,2013-08-29 01:53:00
9:53 PM,72.0,69.1,91,30.04,5.0,Calm,Calm,-,N/A,,Clear,0,2013-08-29 02:53:00
10:53 PM,71.1,68.0,90,30.04,6.0,Calm,Calm,-,N/A,,Clear,0,2013-08-29 03:53:00
11:53 PM,70.0,66.9,90,30.04,5.0,Calm,Calm,-,N/A,,Clear,0,2013-08-29 04:53:00